Regional Weather Roundup
Issued by NWS

Home | Current Version | Previous Version | Graphics & Text | Print | Product List | Glossary On
Versions: 1 2 3 4 5 6 7 8 9 10 11 12 13 14 15 16 17 18 19 20 21 22 23 24 25 26 27 28 29 30 31 32 33 34 35 36 37 38 39 40 41 42 43 44 45 46 47 48 49 50
000
ASUS43 KMKX 181700
RWRWI

WISCONSIN REGIONAL WEATHER ROUNDUP
NATIONAL WEATHER SERVICE MILWAUKEE/SULLIVAN WI
1200 PM CDT THU SEP 18 2014

NOTE: "FAIR" INDICATES FEW OR NO CLOUDS BELOW 12,000 FEET WITH NO
SIGNIFICANT WEATHER AND/OR OBSTRUCTIONS TO VISIBILITY.

WIZ001-002-006>008-014>016-023>028-181800-
NORTHWEST WISCONSIN

CITY           SKY/WX    TMP DP  RH WIND       PRES   REMARKS
SUPERIOR ARPT  CLOUDY    47  42  81 NE5       30.17S
ASHLAND        CLOUDY    49  42  77 N3        30.19S
HAYWARD        CLOUDY    51  47  86 SE8       30.16R
SIREN          CLOUDY    53  49  86 SE5       30.13S
RICE LAKE      CLOUDY    51  47  86 SE8       30.16S
LADYSMITH      CLOUDY    50  47  88 SE8       30.18S
EAU CLAIRE     NOT AVBL
MENOMONIE      CLOUDY    53  50  90 E7        30.16R
NEW RICHMOND   CLOUDY    55  53  90 SE7       30.13S
OSCEOLA        CLOUDY    55  55  97 SE9       30.15S
$$

WIZ003>005-009-010-017-018-181800-
NORTH CENTRAL WISCONSIN

CITY           SKY/WX    TMP DP  RH WIND       PRES   REMARKS
WOODRUFF       CLOUDY    45  40  83 S6        30.19S
RHINELANDER    CLOUDY    45  39  79 S6        30.20S
EAGLE RIVER    CLOUDY    45  36  71 CALM      30.19F
LAND O LAKES   CLOUDY    46  38  72 SE5       30.20S
PHILLIPS       CLOUDY    47  44  90 SE8       30.17R
TOMAHAWK       CLOUDY    46  41  85 SE5       30.20S
MEDFORD        CLOUDY    44  43  95 SE5       30.19S FOG
MERRILL        CLOUDY    46  41  83 S7        30.20F
$$

WIZ029-030-035-036-043>047-181800-
CENTRAL WISCONSIN

CITY           SKY/WX    TMP DP  RH WIND       PRES   REMARKS
WAUSAU         CLOUDY    47  41  80 S8        30.20S
MOSINEE        NOT AVBL
MARSHFIELD     CLOUDY    48  44  86 SE10      30.19S
STEVENS POINT  CLOUDY    45  41  85 SE8       30.21F
WAUPACA        CLOUDY    50  44  78 NE5       30.23S
WAUTOMA        NOT AVBL
WISC RAPIDS    CLOUDY    49  45  86 SE6       30.21F
CAMP DOUGLAS   NOT AVBL
$$

WIZ011>013-019>022-031-037>040-048>050-181800-
NORTHEAST WISCONSIN

CITY           SKY/WX    TMP DP  RH WIND       PRES   REMARKS
ANTIGO         CLOUDY    45  40  81 S6        30.21S
STURGEON BAY   CLOUDY    54  43  66 NE6       30.22S
GREEN BAY      CLOUDY    52  43  71 N5        30.22S
MANITOWOC      NOT AVBL
APPLETON       PTSUNNY   52  41  66 NE6       30.22S
CLINTONVILLE   CLOUDY    46  39  76 E5        30.23S
OSHKOSH        CLOUDY    52  46  80 E7        30.21R
$$

WIZ032>034-041-042-053>061-181800-
SOUTHWEST WISCONSIN

CITY           SKY/WX    TMP DP  RH WIND       PRES   REMARKS
LA CROSSE      PTSUNNY   60  52  74 E5        30.15F
SPARTA         CLOUDY    55  51  86 SE3       30.18S
VIROQUA        CLOUDY    54  54 100 E5        30.17S
BOSCOBEL       CLOUDY    60  52  74 E6        30.17F
PRAIRIE DU CHI SUNNY     62  53  70 E6        30.14F
PLATTEVILLE    FAIR      62  54  75 CALM      30.16F
$$

WIZ056-057-062-063-064-067-068-181800-
SOUTH CENTRAL WISCONSIN

CITY           SKY/WX    TMP DP  RH WIND       PRES   REMARKS
BARABOO/DELLS  CLOUDY    51  47  87 E3        30.19F
LONE ROCK      NOT AVBL
WATERTOWN      CLOUDY    53  51  93 CALM      30.19S
MADISON        CLOUDY    53  49  86 E6        30.19S
MIDDLETON      CLOUDY    54  53  95 E5        30.20S
MONROE         CLOUDY    52  50  93 NE8       30.17F FOG
JANESVILLE     CLOUDY    57  54  88 NE6       30.18S
$$

WIZ051-052-058>065-066-070>072-181800-
SOUTHEAST WISCONSIN

CITY           SKY/WX    TMP DP  RH WIND       PRES   REMARKS
MILWAUKEE      CLOUDY    57  50  77 N12       30.19S
WAUKESHA       CLOUDY    55  52  88 CALM      30.20R
MILWAUKEE/TIMM CLOUDY    57  48  72 NE6       30.20R
RACINE         CLOUDY    59  52  77 N13       30.20R
BURLINGTON     CLOUDY    57  51  79 CALM      30.18S
KENOSHA        CLOUDY    60  54  80 NE6       30.18S
FOND DU LAC    CLOUDY    54  45  71 E5        30.21S
SHEBOYGAN      CLOUDY    56  47  71 NE7       30.20S
WEST BEND      CLOUDY    54  46  76 NE6       30.20S
JUNEAU         CLOUDY    52  48  86 CALM      30.22R
$$

LSZ147-162-181800-
LAKE SUPERIOR

STATION/POSITION TIME  TEMP    WIND        PRES    WAVE
                       AIR SEA DIR/SP/G            HT/PER
                 (UTC) (F)     (DEG/KT/KT) (MB)    (FT/S)
W MID LAKE BUOY  1550   44 47  110/ 10/ 12 1023.4R   1/ 3
DEVILS ISLAND    1600   44     100/ 10/ 12 1023.2R
PORT WING        1600   52      50/  4/  7 1022.0S
SAXON HARBOR     1600   47      10/  2/  4 1022.4R
$$

LMZ867-665-643>646-181800-
LAKE MICHIGAN

STATION/POSITION TIME  TEMP    WIND        PRES    WAVE
                       AIR SEA DIR/SP/G            HT/PER
                 (UTC) (F)     (DEG/KT/KT) (MB)    (FT/S)
N MID LAKE BUOY  1550   50 58   90/ 10/ 12 1023.1R   2/ 4
NORTHPORT PIER   1600   50      50/  5/  9 1023.4R
KEWAUNEE LAKESHO 1600   52      20/  6/  9 1022.1R
SHEBOYGAN LAKESH 1600   49 48  350/ 10/ 11 1023.2R
PORT WASHINGTON  1600   55      30/  4/  8 1023.0R
ATWATER BUOY     1600   54     360/ 16/ 19 1022.8R
MILWAUKEE LAKESH 1600   54      10/ 12/ 15   N/A
S MID LAKE BUOY  1550   62 63  190/  4/  6 1021.0S   3/ 6
KENOSHA   LAKESH 1600   57      20/  9/ 10 1021.7R
$$

TC  - TEMPERATURE IN CELSIUS
VSB - VISIBILITY IN STATUTE MILES
WCI - WIND CHILL INDEX
HX  - HEAT INDEX



USA.gov is the U.S. government's official web portal to all federal, state and local government web resources and services.